User: anonymous   Login
Location: *
(2.5500°S, 65.9667°W)
Time: 07:51:19
(UTC+00:00)
Language:

DELTA-4 R/B - Orbit

View from above orbital plane
View from above orbital plane
View from above satellite
View from above satellite

Ground track
Ground track

The orbit data is extracted from the following two-line orbital elements,

1 27555U 02051B   22276.22236559 -.00000056  00000-0 -51196-4 0  9994
2 27555  13.2656 205.0614 7123149 292.0682  10.0414  2.35670787170961
Epoch (UTC): 03 October 2022 05:20:12
Eccentricity: 0.7123149
inclination: 13.2656°
perigee height: 484 km
apogee height: 34464 km
right ascension of ascending node: 205.0614°
argument of perigee: 292.0682°
revolutions per day: 2.35670787
mean anomaly at epoch: 10.0414°
orbit number at epoch: 17096

The dashed part of the orbit path shows where the satellite is in the earth's shadow,  

DLR